Wind_Speed
30 25 22 22 21 24 24 25 26 24 21 18 16 16 14 12 10 9 8 8 8 10 10 10 11 11 11 11 11 11 11 12 11 11 12 14 15 16 15 15 13 11 9
35 34 29 27 24 24 25 26 27 26 21 16 13 13 12 12 11 9 8 8 9 10 10 10 11 11 11 12 12 12 12 12 11 10 10 7 10 13 14 12 10 7 5
27 35 32 28 23 25 25 25 25 25 22 19 17 14 14 13 11 9 8 8 9 10 10 11 11 12 12 12 12 12 12 12 12 10 8 4 5 5 10 12 10 8 6
22 25 32 28 23 22 22 22 24 25 23 21 18 15 12 11 10 9 9 10 10 11 11 12 12 13 13 13 13 12 12 13 12 12 12 14 13 5 4 8 11 11 10
19 18 29 25 21 19 19 20 22 24 24 23 20 16 14 12 11 10 10 10 11 12 12 13 14 14 15 15 14 14 13 13 13 12 13 13 15 17 14 8 9 14 13
12 14 23 25 24 23 22 22 25 27 27 26 22 19 15 13 12 11 11 12 12 12 12 14 14 15 16 16 16 16 15 14 14 14 15 15 13 12 16 15 10 12 14
9 16 24 26 24 23 22 23 26 29 29 27 24 20 16 15 14 13 12 12 12 13 13 15 15 16 17 17 17 17 16 15 15 15 15 15 15 15 14 14 12 10 12
13 18 23 24 23 22 23 23 24 28 29 27 24 20 18 17 15 13 12 12 14 16 16 16 16 16 17 17 17 17 17 16 15 15 15 14 14 13 12 12 12 10 10
13 18 22 25 23 23 22 22 22 26 28 26 24 22 20 19 16 13 13 13 15 17 17 17 16 16 17 17 17 17 17 15 15 14 14 13 13 12 11 9 10 11 9
13 14 20 24 23 23 22 22 22 24 26 26 25 24 22 19 16 15 14 14 16 16 16 15 15 15 16 17 17 17 16 16 15 15 13 12 12 11 10 8 9 9 8
12 12 14 21 22 22 22 22 24 26 28 28 26 24 22 19 17 15 15 15 16 15 14 13 14 15 15 16 16 16 16 16 15 15 14 12 12 11 11 10 10 7 7
21 16 12 19 23 24 24 24 24 26 26 26 24 22 20 19 17 16 15 16 16 14 15 14 15 15 14 14 15 16 16 16 15 15 16 16 21 19 20 19 17 11 10
24 24 19 20 25 26 25 24 24 25 23 22 21 20 20 18 17 16 17 16 14 15 15 14 14 13 13 14 14 15 16 16 15 19 22 27 23 19 14 13 13 12 13
32 29 25 24 25 23 23 22 22 21 19 20 19 18 18 16 17 20 17 17 15 14 14 11 11 11 11 13 14 13 15 16 17 18 21 19 20 18 17 16 15 14 15
31 32 33 33 24 21 21 19 18 18 16 16 15 16 15 19 21 20 17 16 15 15 13 9 10 10 12 14 14 15 15 15 17 19 21 22 19 16 13 15 17 17 15
28 32 28 22 19 17 11 6 7 9 8 10 13 14 18 19 22 19 16 15 14 12 10 9 9 11 13 14 16 12 13 14 16 17 15 20 16 13 14 15 16 16 14
39 31 24 17 8 12 13 17 14 15 12 15 15 16 21 21 17 15 13 11 11 12 11 10 9 11 13 12 11 12 14 15 14 13 18 16 14 14 16 15 11 11 10
38 40 30 24 27 29 31 32 33 26 29 21 19 18 17 14 11 11 12 12 12 13 11 12 13 12 12 8 10 10 9 8 9 12 13 13 12 12 11 11 9 9 8
34 40 34 27 22 25 28 24 30 24 18 14 18 19 16 13 12 12 12 13 13 13 13 13 13 12 12 7 7 8 8 6 5 6 8 9 10 12 11 9 6 6 6
35 34 37 25 19 18 19 17 14 14 10 20 19 17 16 15 14 14 14 12 12 12 11 12 16 11 10 10 10 12 8 7 5 5 7 8 9 11 13 9 6 6 8
33 31 33 23 13 12 14 15 12 18 18 17 16 14 15 15 15 15 15 13 13 11 11 11 15 11 11 11 10 11 8 6 7 8 9 11 11 12 11 9 7 8 11
32 31 27 24 13 14 17 16 15 17 16 14 14 14 15 15 16 15 14 12 11 11 10 10 11 10 10 10 11 10 7 6 6 6 9 10 12 13 11 10 11 12 11
30 28 26 22 17 19 18 19 18 19 19 17 14 13 13 13 13 11 11 11 12 9 10 10 10 11 12 12 12 10 8 6 6 8 9 7 11 15 12 10 12 13 11
31 26 24 24 21 23 19 17 18 17 15 13 12 12 11 10 12 11 10 10 10 10 7 8 11 11 12 12 15 14 8 8 8 8 7 9 16 13 11 10 12 13 11
29 27 25 25 24 23 21 20 18 15 14 14 12 11 10 9 10 10 11 10 10 10 10 9 9 10 11 12 14 13 10 9 8 7 6 8 13 14 11 11 12 12 12
28 28 27 28 29 24 20 23 19 17 16 16 16 15 13 12 11 11 10 7 7 6 6 7 7 8 8 13 14 13 11 11 10 8 8 10 10 11 11 11 11 11 9
Wind_Direction
237 229 230 229 227 219 216 215 215 216 218 220 221 225 229 234 240 247 260 275 287 296 297 296 295 295 294 293 292 292 292 289 288 284 279 275 272 271 272 275 278 281 279
241 231 229 225 228 223 217 215 215 217 221 223 225 229 232 235 239 252 265 279 298 303 300 297 295 292 291 291 291 290 290 289 288 280 282 276 271 262 260 262 264 260 257
245 229 226 224 225 219 217 219 218 216 217 219 222 228 232 235 241 250 263 281 293 299 299 294 292 292 292 291 288 287 286 286 284 273 248 254 239 262 253 246 245 253 231
255 233 225 223 225 224 222 222 218 215 217 221 226 231 238 239 238 247 261 274 290 299 299 294 292 291 290 289 288 286 284 283 280 270 258 248 252 260 255 242 232 238 238
245 235 215 222 226 225 225 223 219 217 219 224 229 233 237 235 236 246 259 273 285 292 293 293 292 291 290 288 288 286 282 278 275 268 263 258 255 251 251 258 238 238 237
247 218 205 212 217 220 219 217 217 216 218 222 226 231 235 234 236 244 253 263 274 282 287 288 286 286 287 285 283 281 279 276 272 265 258 252 250 251 245 245 250 235 236
230 215 210 214 219 222 222 224 221 217 217 220 223 229 231 232 232 237 249 263 279 289 288 286 284 284 284 282 281 280 279 275 270 264 259 255 252 251 251 247 240 226 225
249 226 219 221 224 227 232 232 228 220 217 220 222 225 226 228 231 236 252 270 281 286 286 285 284 284 282 279 278 277 274 270 266 261 258 257 254 249 245 243 235 217 210
265 239 223 223 225 231 237 238 231 220 217 219 221 224 225 227 233 242 253 268 279 282 282 282 280 279 278 278 277 276 274 269 263 257 254 252 249 245 242 241 238 223 209
292 261 236 229 227 231 234 232 225 220 216 217 219 224 227 227 233 242 259 270 277 279 278 280 279 278 279 278 276 275 272 267 260 254 247 245 246 244 240 239 233 225 223
322 293 262 235 233 237 237 233 225 216 213 218 221 225 229 230 232 245 263 275 277 274 274 276 278 278 274 270 271 272 270 265 255 246 240 244 248 254 261 265 259 236 224
347 328 291 244 238 239 240 236 230 224 220 221 225 229 232 233 239 256 269 278 274 263 269 277 276 276 272 272 276 275 268 260 254 253 245 247 262 257 254 248 239 228 222
331 322 306 264 246 243 239 236 231 225 227 228 227 229 234 239 252 266 279 274 256 252 261 263 267 268 270 273 276 276 267 261 259 256 260 272 258 237 230 225 220 217 221
319 318 319 296 263 253 246 236 230 230 230 233 232 232 238 250 276 275 274 264 251 251 259 252 260 268 273 286 277 267 266 277 275 269 276 248 247 241 234 224 224 213 215
315 304 297 298 275 254 248 233 223 226 231 234 237 244 251 278 275 273 261 248 241 244 240 252 269 275 281 279 268 266 263 263 257 264 250 237 251 235 233 229 222 221 214
333 320 306 307 269 245 213 202 218 219 243 261 262 273 273 278 269 259 245 249 235 233 236 248 265 273 283 258 278 267 272 255 263 253 237 247 237 229 229 228 230 218 219
350 335 320 285 227 219 255 265 259 257 263 255 248 246 255 249 248 240 240 236 236 234 233 237 247 277 289 266 264 266 258 255 263 254 237 246 232 215 231 228 212 212 214
343 338 325 302 275 273 267 269 269 269 266 251 235 236 234 233 223 218 227 237 243 247 242 247 239 273 291 244 250 243 253 265 257 246 234 228 232 218 217 201 205 213 213
335 333 324 313 289 275 274 264 269 238 217 214 244 228 222 223 224 223 228 235 240 243 244 247 255 274 280 242 233 225 251 256 246 219 208 210 211 209 203 201 208 214 203
330 325 326 314 304 279 251 237 198 204 244 249 223 218 223 231 231 230 233 234 241 242 248 253 250 280 268 227 229 239 234 242 243 235 217 209 212 214 204 204 217 189 164
327 327 326 319 302 240 195 193 225 245 234 216 214 220 228 229 229 231 234 236 236 240 249 246 249 261 250 237 233 232 223 226 254 252 233 213 206 215 212 205 199 168 163
320 326 325 322 274 228 223 213 208 200 202 210 225 223 226 226 227 225 225 228 239 247 243 243 237 246 225 236 230 220 215 220 245 203 197 216 207 206 205 193 184 172 170
318 316 316 307 284 250 231 222 205 210 217 215 216 217 215 215 217 210 210 220 230 238 234 237 241 234 220 228 202 213 207 212 181 186 198 209 195 195 192 188 189 176 179
322 315 307 298 278 252 233 226 215 198 204 204 203 199 193 186 203 200 213 229 226 206 216 225 224 225 225 217 200 186 198 188 190 183 183 172 177 185 185 191 185 170 184
325 316 304 296 286 252 232 225 214 197 192 185 182 168 168 175 183 196 187 195 207 220 223 220 222 221 211 204 199 196 184 190 171 162 169 165 182 193 203 183 173 178 189
314 320 312 298 291 253 226 222 206 196 196 179 169 167 170 179 180 194 201 178 167 171 173 184 198 200 194 192 190 183 179 178 166 160 160 160 163 170 173 173 179 190 210
Height
1504 1506 1507 1508 1510 1511 1514 1517 1520 1522 1524 1527 1530 1533 1535 1537 1539 1540 1540 1540 1540 1539 1540 1539 1540 1540 1540 1540 1540 1539 1538 1538 1538 1537 1536 1535 1535 1535 1535 1535 1535 1535 1535
1493 1496 1498 1500 1503 1506 1508 1511 1514 1519 1524 1527 1529 1531 1533 1534 1536 1537 1538 1538 1538 1538 1538 1537 1538 1537 1537 1536 1536 1535 1535 1535 1535 1534 1534 1533 1533 1532 1531 1532 1533 1533 1533
1482 1488 1492 1496 1499 1501 1505 1508 1513 1517 1520 1523 1525 1527 1529 1531 1532 1534 1535 1535 1536 1536 1535 1535 1535 1535 1534 1534 1533 1532 1532 1532 1531 1531 1532 1532 1530 1528 1528 1529 1529 1529 1531
1480 1482 1488 1493 1497 1501 1504 1506 1509 1513 1517 1519 1522 1524 1525 1527 1528 1530 1532 1533 1534 1533 1533 1533 1532 1532 1532 1531 1530 1529 1529 1529 1529 1529 1529 1528 1528 1529 1528 1526 1527 1527 1528
1473 1476 1484 1491 1495 1498 1502 1505 1508 1511 1514 1516 1519 1520 1522 1523 1524 1526 1528 1529 1530 1530 1530 1530 1529 1529 1529 1528 1528 1527 1527 1526 1526 1526 1526 1526 1526 1525 1525 1524 1523 1524 1526
1473 1476 1480 1484 1488 1491 1494 1497 1499 1503 1507 1510 1513 1515 1517 1519 1520 1522 1524 1525 1526 1525 1525 1525 1525 1525 1525 1525 1524 1524 1523 1523 1523 1523 1523 1523 1523 1522 1522 1522 1521 1521 1522
1471 1474 1478 1482 1485 1488 1491 1493 1495 1498 1501 1505 1507 1511 1513 1514 1515 1517 1519 1520 1521 1521 1521 1521 1520 1520 1520 1521 1520 1521 1520 1519 1519 1519 1520 1520 1520 1520 1520 1519 1517 1519 1519
1467 1469 1473 1477 1481 1484 1486 1488 1491 1494 1497 1501 1504 1506 1508 1510 1511 1513 1515 1516 1516 1516 1516 1515 1515 1516 1516 1516 1516 1516 1516 1515 1515 1516 1516 1517 1517 1517 1516 1516 1517 1516 1517
1466 1467 1469 1473 1477 1479 1482 1484 1486 1489 1493 1496 1499 1501 1503 1504 1507 1509 1509 1510 1511 1511 1510 1510 1510 1510 1510 1511 1512 1512 1513 1512 1512 1512 1512 1513 1514 1514 1514 1514 1515 1515 1513
1466 1467 1468 1470 1473 1475 1476 1478 1480 1484 1488 1491 1493 1496 1497 1499 1502 1503 1505 1505 1505 1505 1505 1504 1505 1505 1506 1507 1507 1508 1508 1507 1508 1509 1510 1510 1511 1511 1509 1511 1512 1512 1512
1465 1465 1466 1468 1471 1473 1474 1475 1476 1477 1480 1484 1488 1491 1494 1496 1497 1498 1500 1500 1499 1499 1499 1499 1499 1500 1501 1502 1503 1504 1504 1505 1504 1504 1506 1506 1509 1509 1507 1507 1509 1509 1511
1465 1465 1465 1468 1468 1469 1470 1472 1474 1477 1478 1480 1484 1487 1490 1492 1494 1495 1494 1493 1494 1493 1493 1493 1495 1496 1497 1498 1499 1499 1499 1500 1501 1503 1503 1501 1503 1502 1502 1503 1505 1506 1509
1466 1465 1466 1465 1464 1464 1465 1468 1471 1473 1476 1479 1480 1483 1487 1488 1490 1492 1490 1488 1488 1489 1489 1489 1491 1492 1493 1493 1494 1495 1496 1496 1496 1498 1498 1498 1496 1496 1497 1498 1500 1502 1507
1469 1467 1463 1463 1463 1463 1464 1463 1465 1469 1473 1476 1478 1479 1481 1484 1485 1486 1484 1483 1484 1484 1485 1486 1487 1488 1488 1489 1490 1490 1490 1490 1490 1491 1492 1492 1491 1493 1493 1495 1497 1499 1502
1464 1462 1460 1459 1458 1459 1462 1461 1460 1465 1468 1471 1473 1475 1476 1479 1480 1480 1478 1479 1480 1481 1482 1483 1484 1485 1485 1486 1486 1486 1485 1485 1484 1485 1486 1488 1488 1489 1490 1491 1493 1494 1497
1462 1459 1456 1452 1451 1453 1458 1459 1460 1462 1464 1466 1469 1470 1473 1472 1474 1475 1474 1474 1475 1477 1478 1479 1480 1481 1481 1481 1482 1482 1482 1482 1482 1480 1482 1483 1484 1486 1487 1488 1489 1491 1494
1461 1457 1453 1452 1450 1452 1455 1456 1456 1457 1458 1460 1463 1466 1467 1467 1469 1470 1470 1471 1472 1474 1474 1475 1476 1478 1477 1477 1477 1476 1477 1477 1479 1478 1478 1479 1481 1482 1484 1485 1487 1489 1491
1459 1453 1450 1448 1447 1447 1446 1448 1449 1449 1451 1453 1456 1457 1460 1462 1463 1464 1467 1468 1469 1470 1471 1472 1473 1473 1473 1472 1472 1473 1474 1474 1474 1474 1476 1477 1478 1479 1481 1483 1485 1486 1488
1458 1452 1445 1440 1437 1438 1438 1440 1440 1440 1443 1446 1450 1452 1455 1458 1460 1461 1463 1464 1465 1466 1467 1469 1469 1469 1469 1470 1470 1471 1470 1471 1472 1472 1473 1475 1476 1478 1480 1482 1484 1485 1486
1453 1448 1440 1435 1431 1431 1432 1432 1435 1441 1441 1443 1445 1448 1450 1452 1455 1457 1458 1460 1463 1463 1464 1464 1465 1465 1466 1467 1468 1468 1467 1468 1470 1470 1472 1473 1475 1477 1479 1481 1483 1484 1485
1449 1445 1440 1433 1430 1430 1429 1431 1432 1436 1438 1441 1442 1442 1444 1447 1450 1452 1455 1457 1458 1459 1460 1461 1461 1461 1463 1464 1465 1465 1466 1466 1467 1468 1469 1471 1474 1476 1478 1480 1482 1484 1486
1446 1441 1436 1433 1433 1431 1433 1428 1429 1433 1435 1437 1438 1439 1441 1443 1446 1447 1450 1453 1454 1455 1456 1457 1457 1458 1460 1462 1463 1463 1464 1464 1465 1466 1468 1470 1472 1475 1477 1479 1481 1483 1486
1441 1438 1434 1430 1430 1431 1430 1430 1428 1431 1431 1432 1434 1436 1438 1440 1443 1445 1446 1449 1451 1452 1453 1454 1454 1455 1456 1459 1460 1461 1463 1463 1464 1466 1468 1469 1471 1473 1476 1478 1480 1483 1486
1436 1434 1430 1427 1425 1425 1426 1428 1427 1426 1428 1429 1432 1433 1435 1438 1441 1443 1444 1446 1446 1447 1449 1451 1451 1452 1454 1455 1458 1460 1461 1462 1464 1466 1467 1469 1470 1473 1475 1478 1480 1483 1485
1433 1429 1426 1422 1420 1419 1419 1422 1425 1423 1424 1426 1428 1432 1434 1436 1438 1441 1441 1442 1444 1445 1446 1447 1449 1450 1451 1453 1456 1458 1459 1461 1463 1465 1467 1469 1471 1473 1475 1477 1479 1482 1485
1429 1424 1420 1418 1415 1414 1414 1418 1419 1420 1422 1423 1425 1428 1432 1435 1436 1438 1440 1439 1441 1442 1443 1445 1447 1448 1450 1453 1455 1456 1459 1461 1463 1465 1467 1469 1471 1474 1476 1478 1480 1482 1484